Observations for Trim Market St
| Time | AQI | Temp °C | Hum % | Pres Pa | CO μg/m³ | H₂S μg/m³ | NO μg/m³ | NO₂ μg/m³ | O₃ μg/m³ | SO₂ μg/m³ | PM1 μg/m³ | PM2.5 μg/m³ | PM10 μg/m³ |
|---|---|---|---|---|---|---|---|---|---|---|---|---|---|
| Sunday 16 August 2026 | |||||||||||||
| 01:48 | 2 | 15.8 | 63 | 57,831 | 0.21 | 0 | 1.17 | 9.34 | 56.78 | 0 | 1.43 | 2.9 | 4.18 |
| 01:47 | 2 | 15.8 | 63 | 57,835 | 0.19 | 0 | 1.16 | 7.26 | 47.87 | 0 | 0.71 | 3.39 | 4.85 |
| 01:46 | 2 | 15.8 | 63 | 57,838 | 0.19 | 0 | 1.17 | 6.92 | 49.83 | 0 | 1.43 | 2.9 | 4.85 |
| 01:45 | 2 | 15.8 | 63 | 57,844 | 0.18 | 0 | 1.29 | 6.22 | 55.23 | 0 | 2.14 | 3.4 | 4.85 |
| 01:42 | 2 | 15.8 | 62 | 57,846 | 0.19 | 0 | 1.39 | 7.23 | 49.82 | 0 | 2.14 | 3.9 | 5.51 |
| 01:41 | 2 | 15.8 | 62 | 57,849 | 0.2 | 0 | 1.28 | 7.75 | 51.48 | 0 | 1.43 | 3.9 | 5.51 |
| 01:37 | 2 | 15.9 | 62 | 57,859 | 0.39 | 0 | 2.61 | 9.24 | 52.84 | 0 | 1.43 | 3.42 | 5.51 |
| 01:31 | 2 | 15.9 | 62 | 57,876 | 0.2 | 0 | 1.3 | 8.06 | 51.13 | 0 | 1.43 | 2.93 | 4.16 |
| 01:28 | 2 | 15.9 | 62 | 57,878 | 0.24 | 0 | 1.25 | 7.05 | 52.62 | 0 | 0.71 | 2.44 | 3.48 |
| 01:27 | 2 | 15.9 | 62 | 57,880 | 0.5 | 0 | 1.22 | 8.04 | 53.16 | 0 | 0.71 | 3.43 | 4.83 |
| 01:26 | 2 | 15.9 | 62 | 57,881 | 1.33 | 0 | 1.21 | 9.61 | 50.02 | 0 | 1.43 | 3.43 | 4.83 |
| 01:25 | 2 | 15.9 | 62 | 57,880 | 0.2 | 0 | 1.13 | 5.97 | 53.59 | 0 | 1.43 | 3.43 | 4.83 |
| 01:24 | 2 | 15.9 | 62 | 57,882 | 0.22 | 0 | 1.14 | 6.26 | 53.39 | 0 | 1.43 | 2.93 | 4.16 |
| 01:21 | 2 | 15.9 | 62 | 57,883 | 0.29 | 0 | 1.25 | 7.66 | 51.89 | 0 | 3.56 | 4.43 | 6.18 |
| 01:20 | 2 | 15.9 | 62 | 57,883 | 0.35 | 0 | 1.3 | 9.32 | 50.15 | 0 | 2.85 | 4.93 | 7.53 |
| 01:18 | 2 | 15.9 | 62 | 57,885 | 0.38 | 0 | 1.16 | 8.37 | 50.26 | 0 | 3.56 | 6.43 | 8.88 |
| 01:17 | 2 | 15.9 | 62 | 57,885 | 0.28 | 0 | 1.23 | 8.26 | 50.62 | 0 | 2.14 | 3.44 | 4.83 |
| 01:16 | 2 | 15.9 | 62 | 57,885 | 0.27 | 0 | 1.14 | 7.9 | 49.45 | 0 | 1.43 | 3.44 | 5.5 |
| 01:12 | 2 | 15.8 | 62 | 57,885 | 0.22 | 0 | 1.13 | 7.04 | 54.08 | 0 | 1.43 | 3.44 | 5.5 |
| 01:11 | 2 | 15.9 | 62 | 57,883 | 0.23 | 0 | 1.12 | 6.68 | 52.22 | 0 | 0 | 2.45 | 3.48 |